DW6356 Weather Reports


time (UTC)temp
C
wind
direction
speed
KPH
gust
KPH
rain 1hr
cm
rain 24hr
cm
rain mn
cm
humidity
%
barometer
mb
20260905234535 12 161 0.0 0.0 0.00 0.00 0.00 88 1023.5
20260905233042 12 160 0.0 1.6 0.00 0.00 0.00 87 1023.4
20260905231539 12 169 0.0 0.0 0.00 0.00 0.00 88 1023.5
20260905230030 12 169 0.0 0.0 0.00 0.00 0.00 89 1023.3
20260905224529 12 169 0.0 0.0 0.00 0.00 0.00 88 1023.3
20260905223027 13 169 0.0 0.0 0.00 0.00 0.00 88 1023.2
20260905221533 13 169 0.0 0.0 0.00 0.00 0.00 86 1023.2
20260905220019 13 169 0.0 1.6 0.00 0.00 0.00 86 1023.1
20260905214517 13 169 0.0 1.6 0.00 0.00 0.00 86 1023.0
20260905213019 13 169 0.0 0.0 0.00 0.00 0.00 87 1023.0
20260905211513 15 169 0.0 0.0 0.00 0.00 0.00 84 1023.0
20260905210013 15 169 0.0 1.6 0.00 0.00 0.00 85 1022.9
20260905204510 15 170 0.0 1.6 0.00 0.00 0.00 88 1023.0
20260905203009 15 176 0.0 1.6 0.00 0.00 0.00 89 1022.7
20260905201511 15 176 0.0 1.6 0.00 0.00 0.00 89 1022.6
20260905200005 15 176 0.0 1.6 0.00 0.00 0.00 87 1022.5
20260905194501 16 176 0.0 0.0 0.00 0.00 0.00 86 1022.4
20260905193058 16 176 0.0 1.6 0.00 0.00 0.00 84 1022.3
20260905191557 17 176 0.0 1.6 0.00 0.00 0.00 82 1022.1
20260905190110 17 176 0.0 1.6 0.00 0.00 0.00 81 1021.8
20260905184606 18 176 0.0 0.0 0.00 0.00 0.00 78 1021.7
20260905183049 18 176 0.0 1.6 0.00 0.00 0.00 76 1021.3
20260905181550 19 205 0.0 1.6 0.00 0.00 0.00 74 1020.9
20260905180046 20 189 0.0 1.6 0.00 0.00 0.00 72 1020.7
20260905174554 20 207 0.0 1.6 0.00 0.00 0.00 70 1020.5
20260905173046 21 207 0.0 1.6 0.00 0.00 0.00 67 1020.1
20260905171545 21 208 0.0 1.6 0.00 0.00 0.00 63 1020.0
20260905170045 22 98 0.0 1.6 0.00 0.00 0.00 61 1019.8
20260905164544 22 170 0.0 1.6 0.00 0.00 0.00 59 1019.7
20260905163043 23 79 0.0 6.4 0.00 0.00 0.00 56 1019.6
20260905161543 23 212 0.0 3.2 0.00 0.00 0.00 55 1019.5
20260905160042 24 200 0.0 1.6 0.00 0.00 0.00 53 1019.4
20260905154542 25 115 0.0 1.6 0.00 0.00 0.00 50 1019.2
20260905153141 25 111 0.0 1.6 0.00 0.00 0.00 51 1019.2
20260905151543 25 113 0.0 6.4 0.00 0.00 0.00 52 1019.3
20260905150040 25 115 0.0 3.2 0.00 0.00 0.00 52 1019.0
20260905144543 25 101 0.0 6.4 0.00 0.00 0.00 50 1019.4
20260905143040 27 165 0.0 3.2 0.00 0.00 0.00 46 1019.4
20260905141544 28 215 0.0 4.8 0.00 0.00 0.00 44 1019.3
20260905140038 28 124 0.0 3.2 0.00 0.00 0.00 46 1019.5
20260905134537 27 207 0.0 1.6 0.00 0.00 0.00 46 1019.5
20260905133034 26 141 0.0 0.0 0.00 0.00 0.00 48 1019.7
20260905131545 25 103 0.0 1.6 0.00 0.00 0.00 52 1019.7
20260905130030 25 5 0.0 1.6 0.00 0.00 0.00 53 1019.7
20260905124539 23 353 0.0 3.2 0.00 0.00 0.00 53 1019.8
20260905123027 23 357 0.0 4.8 0.00 0.00 0.00 53 1019.7
20260905121531 23 13 0.0 11.3 0.00 0.00 0.00 53 1019.6
20260905120029 23 6 0.0 6.4 0.00 0.00 0.00 53 1019.6
20260905114537 24 353 0.0 8.0 0.00 0.00 0.00 52 1019.8
20260905113024 25 32 1.6 11.3 0.00 0.00 0.00 50 1019.5
20260905111527 25 32 3.2 11.3 0.00 0.00 0.00 50 1019.5
20260905110022 25 6 3.2 11.3 0.00 0.00 0.00 50 1019.5
20260905104518 24 5 1.6 11.3 0.00 0.00 0.00 53 1019.5
20260905103028 23 357 3.2 8.0 0.00 0.00 0.00 52 1019.7
20260905101525 23 25 1.6 12.9 0.00 0.00 0.00 54 1019.8
20260905100012 22 358 1.6 8.0 0.00 0.00 0.00 57 1020.0
20260905094509 21 345 1.6 8.0 0.00 0.00 0.00 59 1020.6
20260905093008 20 347 3.2 8.0 0.00 0.00 0.00 59 1020.5
20260905091509 20 341 0.0 9.7 0.00 0.00 0.00 58 1020.5
20260905090007 20 30 1.6 8.0 0.00 0.00 0.00 58 1020.5
20260905084518 20 9 0.0 12.9 0.00 0.00 0.00 58 1020.6
20260905083008 20 340 1.6 8.0 0.00 0.00 0.00 58 1020.9
20260905081505 20 4 0.0 6.4 0.00 0.00 0.00 57 1020.9
20260905080003 20 356 0.0 8.0 0.00 0.00 0.00 57 1021.1
20260905074502 20 10 1.6 8.0 0.00 0.00 0.00 56 1020.8
20260905073005 21 8 3.2 19.3 0.00 0.00 0.00 55 1021.0
20260905071603 20 352 8.0 19.3 0.00 0.00 0.00 55 1021.0
20260905070108 20 9 3.2 12.9 0.00 0.00 0.00 56 1020.6
20260905064556 20 30 3.2 16.1 0.00 0.00 0.00 57 1020.4
20260905063056 20 4 1.6 11.3 0.00 0.00 0.00 57 1020.0
20260905061607 20 349 1.6 12.9 0.00 0.00 0.00 56 1019.6
20260905060048 21 15 0.0 14.5 0.00 0.00 0.00 56 1018.9
20260905054546 21 30 1.6 17.7 0.00 0.00 0.00 58 1018.5
20260905053042 21 349 0.0 11.3 0.00 0.00 0.00 64 1017.8
20260905051540 21 37 0.0 9.7 0.00 0.00 0.00 68 1017.3
20260905050034 20 351 1.6 12.9 0.00 0.00 0.00 74 1016.7
20260905044529 17 162 0.0 0.0 0.00 0.00 0.00 85 1015.7
20260905043028 18 162 0.0 0.0 0.00 0.00 0.00 84 1015.2
20260905041527 17 186 0.0 0.0 0.00 0.00 0.00 85 1014.9
20260905040024 18 176 0.0 0.0 0.00 0.00 0.00 84 1014.7
20260905034528 18 176 0.0 0.0 0.00 0.00 0.00 83 1014.3
20260905033023 17 176 0.0 0.0 0.00 0.00 0.00 84 1014.2
20260905031531 17 176 0.0 0.0 0.00 0.00 0.00 85 1013.9
20260905030026 17 176 0.0 0.0 0.00 0.00 0.00 88 1013.7
20260905024517 16 176 0.0 0.0 0.00 0.00 0.00 90 1013.7
20260905023026 16 176 0.0 0.0 0.00 0.00 0.00 89 1013.5
20260905021513 16 176 0.0 0.0 0.00 0.00 0.00 89 1013.6
20260905020012 17 176 0.0 0.0 0.00 0.00 0.00 89 1013.6
20260905014509 17 176 0.0 0.0 0.00 0.00 0.00 87 1013.8
20260905013009 17 176 0.0 0.0 0.00 0.00 0.00 86 1013.8
20260905011506 17 176 0.0 0.0 0.00 0.00 0.00 86 1013.8
20260905010004 17 176 0.0 0.0 0.00 0.00 0.00 84 1013.8
20260905004502 18 176 0.0 0.0 0.00 0.00 0.00 83 1013.7
20260905003100 18 176 0.0 0.0 0.00 0.00 0.00 82 1013.7
20260905001556 18 176 0.0 0.0 0.00 0.00 0.00 80 1013.6
20260905000052 19 176 0.0 0.0 0.00 0.00 0.00 78 1013.6